Chadron, NE

3:38 AM MDT on October 24, 2017 (GMT -0600)
Chadron Municipal

Weather History for KCDR - January, 2014

Change the Weather History Date:

Friday, January 24, 2014

  Actual Average Record
Temperature  
Mean Temperature 40 °F 25 °F  
Max Temperature 54 °F 39 °F 63 °F (1970)
Min Temperature 26 °F 11 °F -17 °F (1949)
Degree Days  
Heating Degree Days 25 40  
Month to date heating degree days 856 977  
Since 1 July heating degree days 3919 3919  
Cooling Degree Days 0 0  
Month to date cooling degree days 0 0  
Year to date cooling degree days 0 0  
Moisture  
Dew Point 22 °F    
Average Humidity 46    
Maximum Humidity 60    
Minimum Humidity 31    
Precipitation  
Precipitation 0.00 in 0.01 in 0.25 in (1895)
Month to date precipitation 0.12 0.26  
Year to date precipitation 0.12 0.26  
Sea Level Pressure  
Sea Level Pressure 30.14 in    
Wind  
Wind Speed 18 mph (WNW)    
Max Wind Speed 30 mph    
Max Gust Speed 40 mph    
Visibility 10 miles    
Events      
T = Trace of Precipitation, MM = Missing Value Source: NWS Daily Summary

Daily Weather History Graph

Daily Weather History Graph

Search for Another Location

Airport or City:

Trip Planner

Search our weather history database for the weather conditions in past years. The results will help you decide how hot, cold, wet, or windy it might be!

Date:

Astronomy

Jan. 24, 2014 Rise Set
Actual Time 7:14 AM MST 4:55 PM MST
Civil Twilight 6:43 AM MST 5:25 PM MST
Nautical Twilight 6:09 AM MST 6:00 PM MST
Astronomical Twilight 5:35 AM MST 6:33 PM MST
Moon 12:42 AM MST 11:16 AM MST
Length of Visible Light 10h 41m
Length of Day
9h 40m
Last Quarter, 44% of the Moon is Illuminated
Jan 24
Last Quarter
Jan 30
New
Feb 6
First Quarter
Feb 14
Full
Feb 22
Last Quarter

Hourly Weather History & Observations

Time (MST) Temp. Windchill Dew Point Humidity Pressure Visibility Wind Dir Wind Speed Gust Speed Precip Events Conditions
12:53 AM 27.0 °F 14.3 °F 10.9 °F 51% 30.27 in 10.0 mi WSW 17.3 mph - N/A   Clear
1:53 AM 28.0 °F 18.6 °F 10.9 °F 49% 30.26 in 10.0 mi West 10.4 mph - N/A   Clear
2:53 AM 34.0 °F 22.1 °F 14.0 °F 44% 30.22 in 10.0 mi West 21.9 mph 26.5 mph N/A   Mostly Cloudy
3:53 AM 37.0 °F 28.1 °F 12.9 °F 37% 30.21 in 10.0 mi West 15.0 mph - N/A   Overcast
4:53 AM 39.9 °F 30.8 °F 15.1 °F 36% 30.22 in 10.0 mi WNW 18.4 mph - N/A   Overcast
5:53 AM 39.9 °F 30.8 °F 16.0 °F 38% 30.21 in 10.0 mi West 18.4 mph - N/A   Overcast
6:53 AM 39.9 °F 31.4 °F 18.0 °F 41% 30.21 in 10.0 mi West 16.1 mph - N/A   Mostly Cloudy
7:53 AM 43.0 °F 35.1 °F 19.9 °F 40% 30.21 in 10.0 mi WNW 17.3 mph 25.3 mph N/A   Overcast
8:53 AM 44.1 °F 36.2 °F 21.9 °F 42% 30.19 in 10.0 mi WNW 18.4 mph 25.3 mph N/A   Overcast
9:53 AM 46.9 °F - 21.9 °F 37% 30.17 in 10.0 mi WNW 19.6 mph 26.5 mph N/A   Overcast
10:53 AM 48.0 °F - 19.9 °F 33% 30.16 in 10.0 mi WNW 19.6 mph 32.2 mph N/A   Mostly Cloudy
11:53 AM 48.9 °F - 24.1 °F 38% 30.13 in 10.0 mi WNW 24.2 mph 33.4 mph N/A   Overcast
12:53 PM 51.1 °F - 26.1 °F 38% 30.09 in 10.0 mi WNW 21.9 mph 32.2 mph N/A   Overcast
1:53 PM 52.0 °F - 25.0 °F 35% 30.06 in 10.0 mi WNW 24.2 mph 31.1 mph N/A   Overcast
2:53 PM 54.0 °F - 28.0 °F 37% 30.02 in 10.0 mi WNW 21.9 mph 32.2 mph N/A   Overcast
3:53 PM 51.1 °F - 25.0 °F 36% 30.01 in 10.0 mi West 18.4 mph - N/A   Clear
4:53 PM 50.0 °F - 24.1 °F 36% 30.03 in 10.0 mi WNW 15.0 mph 24.2 mph N/A   Clear
5:53 PM 46.9 °F - 24.1 °F 41% 30.06 in 10.0 mi West 11.5 mph - N/A   Mostly Cloudy
6:53 PM 46.0 °F 38.8 °F 26.1 °F 46% 30.07 in 10.0 mi West 18.4 mph - N/A   Mostly Cloudy
7:53 PM 44.1 °F 36.8 °F 27.0 °F 51% 30.07 in 10.0 mi West 16.1 mph - N/A   Overcast
8:53 PM 44.1 °F 35.7 °F 28.0 °F 53% 30.08 in 10.0 mi West 20.7 mph - N/A   Overcast
9:53 PM 41.0 °F 32.2 °F 28.0 °F 60% 30.09 in 10.0 mi West 18.4 mph - N/A   Clear
10:53 PM 41.0 °F 33.9 °F 28.0 °F 60% 30.11 in 10.0 mi West 12.7 mph - N/A   Mostly Cloudy
11:53 PM 44.1 °F 39.5 °F 28.9 °F 55% 30.10 in 10.0 mi West 8.1 mph - N/A   Overcast